Location: Nowy Sacz
(49.6330°N, 20.7170°E)
Time: 20:45:21
(UTC+01:00)

ISS - Visible Passes

Search period start: 24 March 2023 00:00
Search period end: 03 April 2023 01:00
Orbit: 414 x 422 km, 51.6° (Epoch: 24 March)

Date Brightness Start Highest point End Pass type
(mag) Time Alt. Az. Time Alt. Az. Time Alt. Az.
24 Mar -3.4 18:43:19 10° W 18:46:39 62° N 18:49:49 11° ENE visible
24 Mar -2.7 20:20:16 10° WNW 20:22:45 46° WNW 20:22:45 46° WNW visible
25 Mar -3.6 19:32:20 10° WNW 19:35:41 65° N 19:36:46 38° ENE visible
25 Mar -0.7 21:09:12 10° WNW 21:09:42 14° W 21:09:42 14° W visible
26 Mar -3.4 19:44:22 10° WNW 19:47:41 59° N 19:50:45 12° E visible
26 Mar -2.8 21:21:13 10° WNW 21:23:41 44° W 21:23:41 44° W visible
27 Mar -3.9 20:33:13 10° WNW 20:36:35 88° SSW 20:37:38 41° ESE visible
27 Mar -0.6 22:10:21 10° W 22:10:34 11° W 22:10:34 11° W visible
28 Mar -3.7 19:45:12 10° WNW 19:48:33 75° NNE 19:51:34 12° E visible
28 Mar -2.3 21:22:07 10° W 21:24:30 30° WSW 21:24:30 30° WSW visible
29 Mar -3.2 20:33:59 10° WNW 20:37:13 48° SSW 20:38:26 31° SSE visible
30 Mar -3.6 19:45:51 10° WNW 19:49:12 68° SSW 19:52:23 11° ESE visible
30 Mar -1.4 21:23:22 10° W 21:25:19 16° SW 21:25:19 16° SW visible
31 Mar -1.9 20:34:49 10° W 20:37:34 24° SW 20:39:17 16° S visible
01 Apr -2.5 19:46:28 10° W 19:49:33 34° SSW 19:52:37 10° SE visible
02 Apr -0.9 20:36:41 10° WSW 20:37:35 11° SW 20:38:29 10° SSW visible
